Location: Mohawk View
(42.7837°N, 73.7885°W)
Time: 08:07:30
(UTC+00:00)

Meteor 1-24 Rocket - Pass Details

Date: 24 October 2021
Orbit: 790 x 927 km, 81.3° (Epoch: 27 November)

Event Time Altitude Azimuth Distance (km) Brightness Sun altitude
Rises 09:11:25 0° 145° (SE) 3,280 7.2 -24.1°
Reaches altitude 10° 09:14:27 10° 127° (SE) 2,366 6.6 -23.6°
Maximum altitude 09:17:58 18° 85° (E) 1,880 6.4 -22.9°
Drops below altitude 10° 09:21:33 10° 43° (NE) 2,417 6.7 -22.3°
Sets 09:24:41 0° 26° (NNE) 3,379 7.2 -21.7°
